Location: Mahannah Oil Field
(37.4664°N, 96.6003°W)
Time: 00:41:54
(UTC+00:00)

Courier 1B - Visible Passes

Search period start: 19 May 2021 00:00
Search period end: 29 May 2021 00:00
Orbit: 962 x 1209 km, 28.3° (Epoch: 18 May)

Date Brightness Start Highest point End Pass type
(mag) Time Alt. Az. Time Alt. Az. Time Alt. Az.
19 May 8.6 08:08:56 33° SE 08:08:56 33° SE 08:14:03 10° ESE visible
19 May 8.3 09:55:49 18° WSW 10:00:57 41° S 10:08:04 10° ESE visible
20 May 9.6 07:18:24 16° ESE 07:18:24 16° ESE 07:20:00 10° ESE visible
20 May 8.2 09:05:17 35° SW 09:07:09 41° S 09:14:12 10° ESE visible
21 May 8.4 08:14:49 37° SSE 08:14:49 37° SSE 08:20:17 10° ESE visible
21 May 8.5 10:01:43 15° WSW 10:07:03 35° SSW 10:13:53 10° SE visible
22 May 9.4 07:24:27 18° ESE 07:24:27 18° ESE 07:26:20 10° ESE visible
22 May 8.3 09:11:22 33° SW 09:13:18 38° S 09:20:10 10° ESE visible
23 May 8.4 08:21:08 35° SSE 08:21:08 35° SSE 08:26:22 10° ESE visible
23 May 8.7 10:08:03 13° WSW 10:13:09 27° SSW 10:19:20 10° SE visible
24 May 9.5 07:31:04 16° ESE 07:31:04 16° ESE 07:32:30 10° ESE visible
24 May 8.4 09:18:00 29° SW 09:19:25 31° SSW 09:25:50 10° SE visible
25 May 8.7 08:28:08 28° SSE 08:28:08 28° SSE 08:32:12 10° SE visible
25 May 9.0 10:15:04 12° WSW 10:19:10 19° SSW 10:24:10 10° SSE visible
26 May 9.2 03:40:31 10° SSW 03:42:01 15° SSW 03:42:01 15° SSW visible
26 May 9.9 07:38:28 10° ESE 07:38:28 10° ESE 07:38:30 10° ESE visible
26 May 8.7 09:25:25 23° SSW 09:25:30 23° SSW 09:31:03 10° SSE visible
27 May 8.8 02:47:47 10° SSW 02:51:44 17° SSE 02:52:39 16° SE visible
27 May 9.6 04:39:12 10° SW 04:39:37 12° SW 04:39:37 12° SW visible
27 May 9.4 08:35:58 16° SSE 08:35:58 16° SSE 08:37:43 10° SE visible
27 May 9.4 10:23:07 10° SW 10:25:09 11° SSW 10:27:13 10° SSW visible
28 May 8.5 03:45:54 10° SW 03:50:04 27° S 03:50:04 27° S visible
28 May 9.4 09:33:40 13° S 09:33:40 13° S 09:35:19 10° S visible
